This is the latest recevied weather packets stored in our database for station/object KE8WAY. If no packets are shown the sender has not sent any weather packets the latest 10 day(s).
| Time | Temp. | Humidity | Pressure | Rain* | Wind** | Luminosity | Snow |
|---|---|---|---|---|---|---|---|
| 1777716860 | 3.89° C | 80% | 1016.3 hPa | 0 mm | - | 0 W/m² | - |
| 1777716557 | 3.89° C | 79% | 1016.7 hPa | 0 mm | - | 0 W/m² | - |
| 1777716257 | 3.89° C | 79% | 1016.4 hPa | 0 mm | - | 0 W/m² | - |
| 1777715953 | 3.89° C | 79% | 1016.3 hPa | 0 mm | - | 0 W/m² | - |
| 1777715651 | 3.89° C | 79% | 1016.5 hPa | 0 mm | - | 0 W/m² | - |
| 1777715349 | 3.89° C | 78% | 1016.2 hPa | 0 mm | - | 0 W/m² | - |
| 1777715046 | 3.89° C | 79% | 1016.3 hPa | 0 mm | - | 0 W/m² | - |
| 1777714744 | 3.89° C | 79% | 1016.3 hPa | 0 mm | - | 0 W/m² | - |
| 1777714443 | 3.89° C | 80% | 1016.4 hPa | 0 mm | - | 0 W/m² | - |
| 1777714139 | 3.89° C | 81% | 1016.1 hPa | 0 mm | - | 0 W/m² | - |
| 1777713837 | 3.89° C | 83% | 1016.3 hPa | 0 mm | - | 0 W/m² | - |
| 1777713535 | 3.89° C | 81% | 1016.2 hPa | 0 mm | - | 0 W/m² | - |
| 1777713230 | 3.89° C | 84% | 1016.3 hPa | 0 mm | - | 0 W/m² | - |
| 1777712928 | 3.89° C | 83% | 1016.2 hPa | 0 mm | - | 0 W/m² | - |
| 1777712624 | 3.89° C | 84% | 1016.1 hPa | 0 mm | - | 0 W/m² | - |
| 1777712321 | 3.89° C | 85% | 1016.4 hPa | 0 mm | - | 0 W/m² | - |
| 1777712018 | 3.89° C | 86% | 1016.3 hPa | 0 mm | - | 0 W/m² | - |
| 1777711715 | 3.89° C | 87% | 1016.1 hPa | 0 mm | - | 0 W/m² | - |
| 1777711411 | 3.89° C | 86% | 1016.2 hPa | 0 mm | - | 0 W/m² | - |
| 1777711107 | 3.89° C | 86% | 1016 hPa | 0 mm | - | 0 W/m² | - |
| 1777710804 | 3.89° C | 89% | 1016 hPa | 0 mm | - | 0 W/m² | - |
| 1777710501 | 3.89° C | 88% | 1016.2 hPa | 0 mm | - | 0 W/m² | - |
| 1777710198 | 3.89° C | 89% | 1016.2 hPa | 0 mm | - | 0 W/m² | - |
| 1777709895 | 3.89° C | 90% | 1016.3 hPa | 0 mm | - | 0 W/m² | - |
| 1777709593 | 3.89° C | 91% | 1016 hPa | 1.27 mm | - | 0 W/m² | - |
* Rain latest hour (hover to see other rain measurements)
** Current wind speed in m/s (hover to see current wind gust speed)